Regional Weather Roundup
Issued by NWS

Home | Current Version | Previous Version | Graphics & Text | Print | Product List | Glossary On
Versions: 1 2 3 4 5 6 7 8 9 10 11 12 13 14 15 16 17 18 19 20 21 22 23 24 25 26 27 28 29 30 31 32 33 34 35 36 37 38 39 40 41 42 43 44 45 46 47 48 49 50
805
ASUS45 KBOU 232210
RWRCO

WEATHER ROUNDUP FOR COLORADO
NATIONAL WEATHER SERVICE DENVER/BOULDER CO
300 PM MST THU NOV 23 2017

NOTE: "FAIR" INDICATES FEW OR NO CLOUDS BELOW 12000 FEET WITH NO
SIGNIFICANT WEATHER AND/OR OBSTRUCTIONS TO VISIBILITY.

COZ001>005-013-030-031-232300-
...NORTHWEST COLORADO...

CITY           SKY/WX    TMP DP  RH WIND       PRES   REMARKS
CRAIG          FAIR      62  36  37 CALM      30.20F
HAYDEN         FAIR      56  38  50 N3        30.23F
MEEKER         FAIR      60  35  39 S10       30.21F
RABBIT EARS PA FAIR      36  34  93 W8        30.35F
STEAMBOAT SPGS FAIR      53  36  53 CALM      30.23F
WALDEN         FAIR      50  28  43 SW26G36   30.22F
$$

COZ006>008-011-232300-
...WEST CENTRAL VALLEYS...

CITY           SKY/WX    TMP DP  RH WIND       PRES   REMARKS
GRAND JUNCTION FAIR      61  36  39 CALM      30.22F
MONTROSE       FAIR      62  33  33 CALM      30.25F
EAGLE          FAIR      55  35  47 NE5       30.26F
RIFLE          FAIR      59  36  42 CALM      30.24F
DELTA          FAIR      63  33  32 W3        30.23F
NUCLA          FAIR      61  32  33 NW5       30.29F
$$

COZ017>023-064>068-232300-
...SOUTHWEST COLORADO...

CITY           SKY/WX    TMP DP  RH WIND       PRES   REMARKS
DURANGO        FAIR      59  28  30 W3        30.26F
CORTEZ         FAIR      62  31  31 S10       30.24F
PAGOSA SPRINGS FAIR      59  24  26 SW5       30.31S
TELLURIDE      FAIR      56  21  26 W13       30.39F
WOLF CREEK PAS FAIR      43  21  42 SW9       30.55S
$$

COZ009-010-012-014-032>034-037-058>063-232300-
...CENTRAL COLORADO...

CITY           SKY/WX    TMP DP  RH WIND       PRES   REMARKS
ASPEN          FAIR      54  31  41 N6        30.29F
BUENA VISTA    FAIR      59  19  21 W14       30.23F
COPPER MTN     FAIR      39  25  56 NW9       30.46S
BERTHOUD PASS  FAIR      32  21  64 NW51G60   30.34S WCI  14
COTTONWOOD PAS FAIR      55  18  22 W12G18    30.34F
GUNNISON       FAIR      52  31  44 W5        30.31F
KREMMLING      FAIR      59  32  36 W14       30.24F
LEADVILLE      FAIR      49  13  23 NW13G23   30.34F
MONARCH PASS   FAIR      36  21  55 W30G41    30.55F
SALIDA         FAIR      63  18  17 SW14G22   30.29F
SUNLIGHT       FAIR      43  27  52 SW13      30.45F
WILKERSON PASS FAIR      45  14  29 SW6       30.41F
$$

COZ069>075-232300-
...SAN LUIS VALLEY/SANGRE DE CRISTO MOUNTAINS...

CITY           SKY/WX    TMP DP  RH WIND       PRES   REMARKS
ALAMOSA        FAIR      57  27  31 NW3       30.27F
DEL NORTE      FAIR      54  29  38 CALM      30.29F
LA VETA PASS   FAIR      46  16  29 SW28G37     N/A
SAGUACHE       FAIR      52  30  43 SE8       30.29F
$$

COZ035-036-038>040-232300-
...NORTHERN COLORADO FRONT RANGE...

CITY           SKY/WX    TMP DP  RH WIND       PRES   REMARKS
DENVER INTL AP PTSUNNY   67  22  18 W9        30.02F
DMNS CITY PARK   N/A     65  21  18 SW6       30.03S
AURORA         PTSUNNY   64  25  23 N5        30.05F
FRONT RANGE AP PTSUNNY   66  27  22 W17       30.04F
ERIE MUNI ARPT FAIR      65  21  19 W9        30.06F
BOULDER MUN AP FAIR      66  25  20 W7        30.01F
CENTENNIAL     PTSUNNY   64  25  22 CALM      30.06F
BROOMFIELD     PTSUNNY   64  21  19 W8        30.05F
FORT COLLINS   FAIR      66  33  29 SE5       30.00F
LONGMONT       NOT AVBL
$$

COZ041-046-047-076>085-087-088-232300-
...PIKES PEAK/PALMER DIVIDE AND SOUTHERN FOOTHILLS...

CITY           SKY/WX    TMP DP  RH WIND       PRES   REMARKS
COLO. SPRINGS  PTSUNNY   67  28  23 S7        30.10F
A. F. ACADEMY  FAIR      63  29  27 S8        30.11F
SCHRIEVER AFB  FAIR      65  26  22 SW5       30.11F
CHEYENNE MTN   FAIR      59  31  34 S6        30.09F
ELLICOTT         N/A    N/A N/A N/A CALM      30.09F
FALCON         FAIR      65  22  19 SW8G17    30.14F
FORT CARSON    FAIR      66  27  23 CALM      30.08F
LIMON          FAIR      70  26  19 W8        30.04F
MONUMENT HILL  FAIR      61  21  21 N5        30.15F
CANON CITY     FAIR      73  27  17 W9        30.05F
WALSENBURG     FAIR      70  23  17 W10       30.10F
TRINIDAD       FAIR      69  32  25 S3        30.09F
$$

COZ042>045-048>051-090-091-232300-
...NORTHEAST COLORADO...

CITY           SKY/WX    TMP DP  RH WIND       PRES   REMARKS
GREELEY ARPT   FAIR      65  36  34 NE3       30.00F
AKRON          FAIR      69  26  20 W12       29.99F
BURLINGTON     FAIR      70  37  29 SW14      30.00F
WRAY           NOT AVBL
YUMA           FAIR      70  30  23 W12       29.96F
STERLING       FAIR      72  34  25 W13       29.93F
HOLYOKE        FAIR      73  34  23 W12       29.94F
FORT MORGAN    FAIR      70  27  20 W6        29.99F
$$

COZ086-089-092>099-232300-
...SOUTHEAST COLORADO...

CITY           SKY/WX    TMP DP  RH WIND       PRES   REMARKS
PUEBLO         FAIR      75  28  17 S6        30.01F
LA JUNTA       FAIR      72  33  24 S7        30.02F
LAMAR          FAIR      72  34  24 SW7       29.99F
SPRINGFIELD      N/A     70  35  27 SW8       30.04F
$$




USA.gov is the U.S. government's official web portal to all federal, state and local government web resources and services.